Station Historical Data
Daily Summary for August 2, 2017 Units:  English    Metric   Both
« Previous Day
Next Day »
Daily Weekly Monthly Yearly Custom
  High: Low: Average:
Temperature: 85.1 °F 66.7 °F 74.4 °F
Dew Point: 67.5 °F 58.9 °F 63.9 °F
Humidity: 88% 44% 71%
Wind Speed: 9.2mph 0.0mph 3.3mph
Wind Gust: 2.3mph - -
Wind- - WSW
Pressure: 30.14 in 30.04 in -
Precipitation: 0.00 in    
Historical Graphs
 
 
Tabular Data for August 2, 2017
Time Temperature Dew Point Pressure Wind Wind Speed Wind Gust Humidity Rainfall Rate (Hourly) Conditions
00:00 72.4 °F 63.2 °F 30.08 in Calm     73% 0.00 in RA
00:05 72.3 °F 63.2 °F 30.08 in North 9.2 mph   73% 0.00 in BKN
00:10 72.2 °F 63.8 °F 30.08 in Calm     75% 0.00 in BKN
00:15 72.2 °F 63.8 °F 30.09 in Calm     75% 0.00 in BKN
00:20 72.0 °F 63.6 °F 30.09 in North 9.2 mph   75% 0.00 in BKN
00:25 71.9 °F 63.5 °F 30.09 in Calm     75% 0.00 in CLR
00:30 71.7 °F 63.4 °F 30.08 in Calm     75% 0.00 in CLR
00:35 71.5 °F 63.2 °F 30.09 in Calm     75% 0.00 in CLR
00:40 71.4 °F 63.1 °F 30.08 in North 9.2 mph   75% 0.00 in CLR
00:45 71.3 °F 63.3 °F 30.08 in Calm     76% 0.00 in CLR
00:50 71.1 °F 63.5 °F 30.08 in Calm     77% 0.00 in CLR
00:55 71.0 °F 63.4 °F 30.08 in Calm     77% 0.00 in CLR
01:00 70.9 °F 63.3 °F 30.08 in North 9.2 mph   77% 0.00 in CLR
01:05 70.8 °F 63.2 °F 30.08 in Calm     77% 0.00 in CLR
01:10 70.7 °F 63.1 °F 30.08 in Calm     77% 0.00 in CLR
01:15 70.6 °F 63.4 °F 30.08 in North 9.2 mph   78% 0.00 in CLR
01:16 70.6 °F 63.4 °F 30.08 in North 9.2 mph   78% 0.00 in CLR
01:21 70.5 °F 63.3 °F 30.08 in North 9.2 mph   78% 0.00 in FEW
01:26 70.5 °F 63.7 °F 30.08 in North 9.2 mph   79% 0.00 in FEW
01:31 70.4 °F 63.6 °F 30.08 in North 9.2 mph   79% 0.00 in FEW
01:36 70.3 °F 63.5 °F 30.08 in North 9.2 mph   79% 0.00 in FEW
01:41 70.2 °F 63.4 °F 30.08 in North 9.2 mph   79% 0.00 in FEW
01:46 70.1 °F 63.3 °F 30.08 in North 9.2 mph   79% 0.00 in FEW
01:51 70.1 °F 63.6 °F 30.08 in North 9.2 mph   80% 0.00 in FEW
01:56 70.0 °F 63.9 °F 30.08 in North 9.2 mph   81% 0.00 in FEW
02:01 69.9 °F 63.1 °F 30.08 in North 9.2 mph   79% 0.00 in FEW
02:06 69.7 °F 63.3 °F 30.08 in North 9.2 mph   80% 0.00 in FEW
02:11 69.7 °F 63.6 °F 30.08 in North 9.2 mph   81% 0.00 in FEW
02:16 69.6 °F 63.5 °F 30.08 in North 9.2 mph   81% 0.00 in FEW
02:21 69.5 °F 63.4 °F 30.08 in North 9.2 mph   81% 0.00 in CLR
02:26 69.4 °F 63.0 °F 30.08 in North 9.2 mph   80% 0.00 in CLR
02:31 69.3 °F 62.9 °F 30.08 in North 9.2 mph   80% 0.00 in CLR
02:37 69.2 °F 62.8 °F 30.08 in North 9.2 mph   80% 0.00 in CLR
02:42 69.1 °F 63.0 °F 30.08 in North 9.2 mph   81% 0.00 in CLR
02:47 68.9 °F 63.2 °F 30.08 in North 9.2 mph   82% 0.00 in CLR
02:52 68.8 °F 63.1 °F 30.08 in North 9.2 mph   82% 0.00 in CLR
02:57 68.6 °F 63.2 °F 30.08 in North 9.2 mph   83% 0.00 in CLR
03:02 68.5 °F 63.1 °F 30.08 in North 9.2 mph   83% 0.00 in CLR
03:07 68.4 °F 63.0 °F 30.07 in North 9.2 mph   83% 0.00 in CLR
03:12 68.2 °F 62.8 °F 30.07 in North 9.2 mph   83% 0.00 in CLR
03:17 67.9 °F 62.5 °F 30.08 in North 9.2 mph   83% 0.00 in CLR
03:22 67.8 °F 62.4 °F 30.08 in North 9.2 mph   83% 0.00 in CLR
03:27 67.8 °F 62.8 °F 30.08 in North 9.2 mph   84% 0.00 in CLR
03:32 67.7 °F 62.7 °F 30.08 in North 9.2 mph   84% 0.00 in CLR
03:37 67.7 °F 62.7 °F 30.07 in North 9.2 mph   84% 0.00 in CLR
03:42 67.7 °F 63.0 °F 30.07 in North 9.2 mph   85% 0.00 in CLR
03:47 67.7 °F 62.7 °F 30.08 in North 9.2 mph   84% 0.00 in CLR
03:52 67.8 °F 63.1 °F 30.08 in North 9.2 mph   85% 0.00 in CLR
03:58 67.8 °F 63.1 °F 30.08 in North 9.2 mph   85% 0.00 in CLR
04:03 67.8 °F 62.8 °F 30.08 in North 9.2 mph   84% 0.00 in CLR
04:08 67.7 °F 62.7 °F 30.08 in North 9.2 mph   84% 0.00 in CLR
04:13 67.6 °F 62.9 °F 30.08 in North 9.2 mph   85% 0.00 in CLR
04:18 67.5 °F 62.5 °F 30.08 in North 9.2 mph   84% 0.00 in CLR
04:23 67.3 °F 62.6 °F 30.08 in North 9.2 mph   85% 0.00 in SCT
04:28 67.2 °F 62.5 °F 30.08 in North 9.2 mph   85% 0.00 in SCT
04:33 67.1 °F 62.4 °F 30.08 in North 9.2 mph   85% 0.00 in SCT
04:38 67.1 °F 62.8 °F 30.08 in North 9.2 mph   86% 0.00 in SCT
04:43 67.1 °F 62.4 °F 30.07 in North 9.2 mph   85% 0.00 in SCT
04:48 67.1 °F 62.4 °F 30.08 in North 9.2 mph   85% 0.00 in SCT
04:53 67.1 °F 62.4 °F 30.08 in North 9.2 mph   85% 0.00 in SCT
04:58 67.0 °F 62.7 °F 30.07 in North 9.2 mph   86% 0.00 in SCT
05:03 66.9 °F 62.6 °F 30.07 in North 9.2 mph   86% 0.00 in SCT
05:09 66.8 °F 62.5 °F 30.07 in North 9.2 mph   86% 0.00 in SCT
05:14 66.7 °F 62.4 °F 30.07 in North 9.2 mph   86% 0.00 in SCT
05:19 66.7 °F 62.4 °F 30.07 in North 9.2 mph   86% 0.00 in SCT
05:24 66.7 °F 62.4 °F 30.07 in North 9.2 mph   86% 0.00 in FEW
05:29 66.7 °F 62.4 °F 30.07 in North 9.2 mph   86% 0.00 in FEW
05:34 66.7 °F 62.4 °F 30.08 in North 9.2 mph   86% 0.00 in FEW
05:39 66.8 °F 62.8 °F 30.08 in North 9.2 mph   87% 0.00 in FEW
05:44 66.9 °F 62.6 °F 30.08 in North 9.2 mph   86% 0.00 in FEW
05:49 66.9 °F 62.6 °F 30.08 in North 9.2 mph   86% 0.00 in FEW
05:54 66.9 °F 62.6 °F 30.08 in North 9.2 mph   86% 0.00 in FEW
05:59 66.9 °F 62.6 °F 30.08 in North 9.2 mph   86% 0.00 in FEW
06:04 66.9 °F 62.6 °F 30.08 in North 9.2 mph   86% 0.00 in FEW
06:09 66.9 °F 62.6 °F 30.08 in North 9.2 mph   86% 0.00 in FEW
06:14 66.9 °F 62.9 °F 30.08 in North 9.2 mph   87% 0.00 in FEW
06:19 66.9 °F 62.6 °F 30.08 in North 9.2 mph   86% 0.00 in FEW
06:24 66.9 °F 62.6 °F 30.08 in North 9.2 mph   86% 0.00 in CLR
06:29 66.9 °F 62.6 °F 30.08 in North 9.2 mph   86% 0.00 in CLR
06:34 66.9 °F 62.6 °F 30.08 in North 9.2 mph   86% 0.00 in CLR
06:39 67.0 °F 62.7 °F 30.09 in North 9.2 mph   86% 0.00 in CLR
06:44 67.1 °F 62.8 °F 30.09 in North 9.2 mph   86% 0.00 in CLR
06:49 67.1 °F 62.8 °F 30.09 in North 9.2 mph   86% 0.00 in CLR
06:55 67.1 °F 62.8 °F 30.09 in North 9.2 mph   86% 0.00 in CLR
07:00 67.2 °F 62.9 °F 30.09 in North 9.2 mph   86% 0.00 in CLR
07:05 67.3 °F 63.0 °F 30.10 in Calm     86% 0.00 in CLR
07:10 67.3 °F 63.0 °F 30.10 in Calm     86% 0.00 in CLR
07:15 67.4 °F 63.1 °F 30.10 in Calm     86% 0.00 in CLR
07:20 67.5 °F 63.2 °F 30.10 in Calm     86% 0.00 in BKN
07:25 67.6 °F 63.3 °F 30.10 in Calm     86% 0.00 in BKN
07:30 67.6 °F 63.6 °F 30.10 in Calm     87% 0.00 in BKN
07:35 67.7 °F 63.7 °F 30.10 in Calm     87% 0.00 in BKN
07:40 67.8 °F 63.8 °F 30.10 in Calm     87% 0.00 in BKN
07:45 67.8 °F 63.8 °F 30.11 in Calm     87% 0.00 in BKN
07:50 67.9 °F 63.9 °F 30.11 in North 9.2 mph   87% 0.00 in BKN
07:55 67.9 °F 63.9 °F 30.11 in North 9.2 mph   87% 0.00 in BKN
08:00 68.1 °F 64.1 °F 30.11 in North 9.2 mph   87% 0.00 in BKN
08:05 68.2 °F 64.5 °F 30.11 in North 9.2 mph   88% 0.00 in BKN
08:10 68.3 °F 64.3 °F 30.11 in North 9.2 mph   87% 0.00 in BKN
08:15 68.5 °F 64.5 °F 30.11 in North 9.2 mph   87% 0.00 in BKN
08:20 68.6 °F 64.6 °F 30.12 in Calm     87% 0.00 in BKN
08:25 68.6 °F 64.6 °F 30.12 in Calm     87% 0.00 in BKN
08:30 68.7 °F 65.0 °F 30.12 in Calm     88% 0.00 in BKN
08:35 68.8 °F 64.8 °F 30.12 in Calm     87% 0.00 in BKN
08:40 69.0 °F 65.0 °F 30.12 in Calm     87% 0.00 in BKN
08:45 69.4 °F 65.7 °F 30.12 in Calm     88% 0.00 in BKN
08:50 70.0 °F 66.0 °F 30.12 in Calm     87% 0.00 in BKN
08:55 70.6 °F 65.9 °F 30.12 in Calm     85% 0.00 in BKN
09:00 71.1 °F 66.0 °F 30.12 in Calm     84% 0.00 in BKN
09:06 71.5 °F 66.1 °F 30.12 in Calm     83% 0.00 in BKN
09:11 71.7 °F 65.6 °F 30.12 in Calm     81% 0.00 in BKN
09:16 71.9 °F 66.1 °F 30.12 in Calm     82% 0.00 in BKN
09:21 72.0 °F 66.2 °F 30.12 in Calm     82% 0.00 in BKN
09:26 72.2 °F 66.7 °F 30.12 in Calm     83% 0.00 in BKN
09:31 72.4 °F 66.2 °F 30.12 in Calm     81% 0.00 in BKN
09:36 72.6 °F 66.4 °F 30.12 in Calm     81% 0.00 in BKN
09:41 72.9 °F 66.4 °F 30.12 in Calm     80% 0.00 in BKN
09:42 73.0 °F 66.5 °F 30.12 in Calm     80% 0.00 in BKN
09:47 73.4 °F 66.1 °F 30.12 in Calm     78% 0.00 in BKN
09:52 73.6 °F 66.3 °F 30.12 in Calm     78% 0.00 in BKN
09:57 73.8 °F 66.5 °F 30.13 in Calm     78% 0.00 in BKN
09:59 73.9 °F 66.6 °F 30.12 in Calm     78% 0.00 in BKN
10:05 74.1 °F 66.8 °F 30.12 in Calm     78% 0.00 in BKN
10:10 74.4 °F 66.7 °F 30.12 in Calm     77% 0.00 in BKN
10:15 75.0 °F 66.9 °F 30.12 in Calm     76% 0.00 in BKN
10:20 75.6 °F 66.3 °F 30.12 in Calm     73% 0.00 in OVC
10:25 76.1 °F 66.4 °F 30.12 in Calm     72% 0.00 in OVC
10:30 76.5 °F 66.4 °F 30.12 in Calm   1.0 mph 71% 0.00 in OVC
10:35 76.9 °F 66.3 °F 30.12 in Calm   1.0 mph 70% 0.00 in OVC
10:40 77.4 °F 66.0 °F 30.12 in NNW 1.2 mph   68% 0.00 in OVC
10:45 78.0 °F 67.4 °F 30.13 in NNW 1.2 mph   70% 0.00 in OVC
10:50 78.3 °F 64.7 °F 30.13 in NNW 1.2 mph   63% 0.00 in OVC
10:55 78.5 °F 66.2 °F 30.13 in NNW 1.2 mph   66% 0.00 in OVC
10:58 78.6 °F 66.3 °F 30.13 in NNW 1.2 mph   66% 0.00 in OVC
11:03 78.9 °F 66.6 °F 30.13 in NNW 1.2 mph   66% 0.00 in OVC
11:08 79.0 °F 65.8 °F 30.13 in NNW 1.2 mph   64% 0.00 in OVC
11:13 79.1 °F 66.3 °F 30.13 in NNW 1.2 mph   65% 0.00 in OVC
11:18 79.0 °F 67.1 °F 30.14 in NNW 1.2 mph   67% 0.00 in OVC
11:23 78.9 °F 66.6 °F 30.14 in NNW 1.2 mph   66% 0.00 in OVC
11:28 79.0 °F 67.5 °F 30.14 in NNW 1.2 mph   68% 0.00 in OVC
11:33 79.2 °F 66.9 °F 30.14 in NNW 1.2 mph   66% 0.00 in OVC
11:38 79.1 °F 66.3 °F 30.13 in NNW 1.2 mph   65% 0.00 in OVC
11:43 79.1 °F 66.3 °F 30.13 in NNW 1.2 mph   65% 0.00 in OVC
11:48 78.9 °F 67.4 °F 30.13 in NNW 1.2 mph   68% 0.00 in OVC
11:53 78.8 °F 66.5 °F 30.12 in NNW 1.2 mph 1.2 mph 66% 0.00 in OVC
11:58 78.6 °F 65.8 °F 30.12 in NNW 1.2 mph   65% 0.00 in OVC
12:04 78.9 °F 66.6 °F 30.12 in NNW 1.2 mph   66% 0.00 in OVC
12:09 79.2 °F 66.4 °F 30.11 in NNW 1.2 mph   65% 0.00 in OVC
12:14 79.1 °F 65.4 °F 30.12 in NNW 1.2 mph   63% 0.00 in OVC
12:19 79.0 °F 64.9 °F 30.11 in NNW 1.2 mph   62% 0.00 in OVC
12:24 79.1 °F 65.4 °F 30.11 in NNW 1.2 mph   63% 0.00 in OVC
12:29 79.2 °F 64.1 °F 30.12 in NNW 1.2 mph   60% 0.00 in OVC
12:34 79.5 °F 64.4 °F 30.12 in NNW 1.2 mph   60% 0.00 in OVC
12:39 79.6 °F 65.4 °F 30.12 in NNW 1.2 mph   62% 0.00 in OVC
12:44 79.7 °F 66.9 °F 30.12 in NNW 1.2 mph   65% 0.00 in OVC
12:49 79.5 °F 66.7 °F 30.12 in NNW 1.2 mph   65% 0.00 in OVC
12:54 79.2 °F 66.4 °F 30.11 in NNW 1.2 mph   65% 0.00 in OVC
13:00 79.2 °F 67.3 °F 30.12 in Calm     67% 0.00 in OVC
13:05 79.7 °F 65.0 °F 30.12 in Calm   1.0 mph 61% 0.00 in OVC
13:10 80.3 °F 65.1 °F 30.12 in Calm   1.0 mph 60% 0.00 in OVC
13:15 80.7 °F 65.5 °F 30.12 in Calm     60% 0.00 in OVC
13:20 81.0 °F 66.3 °F 30.12 in Calm     61% 0.00 in BKN
13:25 82.0 °F 66.8 °F 30.12 in Calm     60% 0.00 in BKN
13:30 82.4 °F 64.6 °F 30.12 in Calm   1.0 mph 55% 0.00 in BKN
13:35 82.5 °F 63.6 °F 30.12 in Calm     53% 0.00 in BKN
13:40 82.7 °F 63.9 °F 30.12 in Calm   1.0 mph 53% 0.00 in BKN
13:45 83.0 °F 65.7 °F 30.12 in Calm   1.0 mph 56% 0.00 in BKN
13:50 83.2 °F 65.9 °F 30.12 in NNW 1.2 mph   56% 0.00 in BKN
13:55 83.9 °F 64.9 °F 30.11 in WNW 1.2 mph 1.2 mph 53% 0.00 in BKN
14:00 84.5 °F 65.5 °F 30.11 in West 1.2 mph   53% 0.00 in BKN
14:05 84.6 °F 63.3 °F 30.11 in SE 2.3 mph 2.3 mph 49% 0.00 in BKN
14:10 84.9 °F 63.6 °F 30.11 in West 2.3 mph   49% 0.00 in BKN
14:15 85.1 °F 63.8 °F 30.11 in WNW 2.3 mph 2.3 mph 49% 0.00 in BKN
14:20 85.1 °F 64.4 °F 30.11 in WNW 2.3 mph   50% 0.00 in BKN
14:25 84.8 °F 62.3 °F 30.11 in West 2.3 mph   47% 0.00 in BKN
14:30 84.6 °F 62.1 °F 30.11 in WNW 2.3 mph   47% 0.00 in BKN
14:35 84.5 °F 63.2 °F 30.11 in NNE 2.3 mph 2.3 mph 49% 0.00 in BKN
14:40 84.2 °F 63.0 °F 30.10 in NW 2.3 mph   49% 0.00 in BKN
14:45 83.8 °F 61.4 °F 30.10 in WSW 2.3 mph 2.3 mph 47% 0.00 in BKN
14:50 83.4 °F 62.2 °F 30.10 in West 2.3 mph   49% 0.00 in BKN
14:55 83.4 °F 63.9 °F 30.10 in SSW 2.3 mph 2.3 mph 52% 0.00 in BKN
15:01 83.7 °F 61.3 °F 30.09 in NE 2.3 mph 2.3 mph 47% 0.00 in BKN
15:06 83.7 °F 63.1 °F 30.09 in NW 2.3 mph   50% 0.00 in BKN
15:11 83.7 °F 61.9 °F 30.09 in NW 2.3 mph   48% 0.00 in BKN
15:16 83.7 °F 60.7 °F 30.09 in NNW 2.3 mph 2.3 mph 46% 0.00 in BKN
15:21 83.5 °F 62.3 °F 30.10 in NNW 2.3 mph   49% 0.00 in BKN
15:26 83.6 °F 60.6 °F 30.09 in NNW 2.3 mph   46% 0.00 in BKN
15:31 83.7 °F 62.5 °F 30.09 in WNW 2.3 mph   49% 0.00 in BKN
15:36 83.6 °F 61.2 °F 30.09 in WNW 2.3 mph 2.3 mph 47% 0.00 in BKN
15:41 83.3 °F 59.1 °F 30.09 in North 2.3 mph   44% 0.00 in BKN
15:46 83.0 °F 59.5 °F 30.09 in WNW 2.3 mph   45% 0.00 in BKN
15:51 83.0 °F 60.7 °F 30.09 in WNW 2.3 mph 2.3 mph 47% 0.00 in BKN
15:56 83.1 °F 60.2 °F 30.09 in WNW 2.3 mph   46% 0.00 in BKN
15:59 83.1 °F 58.9 °F 30.08 in WNW 2.3 mph   44% 0.00 in BKN
16:04 83.1 °F 61.4 °F 30.08 in WNW 2.3 mph   48% 0.00 in BKN
16:09 82.9 °F 60.0 °F 30.08 in NE 2.3 mph   46% 0.00 in BKN
16:14 82.7 °F 62.7 °F 30.08 in NE 2.3 mph   51% 0.00 in BKN
16:15 82.7 °F 61.0 °F 30.08 in NE 2.3 mph   48% 0.00 in BKN
16:20 82.5 °F 60.8 °F 30.08 in NE 2.3 mph   48% 0.00 in BKN
16:25 82.5 °F 62.0 °F 30.08 in NE 2.3 mph   50% 0.00 in BKN
16:30 82.2 °F 63.9 °F 30.07 in NE 2.3 mph   54% 0.00 in BKN
16:35 81.7 °F 62.9 °F 30.07 in NE 2.3 mph   53% 0.00 in BKN
16:40 81.4 °F 63.2 °F 30.07 in NE 2.3 mph   54% 0.00 in BKN
16:45 81.1 °F 61.8 °F 30.07 in NE 2.3 mph   52% 0.00 in BKN
16:50 81.0 °F 61.2 °F 30.07 in NE 2.3 mph   51% 0.00 in BKN
16:55 81.3 °F 63.6 °F 30.07 in NE 2.3 mph   55% 0.00 in BKN
17:00 81.5 °F 61.6 °F 30.07 in NE 2.3 mph   51% 0.00 in BKN
17:05 81.7 °F 62.9 °F 30.08 in NE 2.3 mph   53% 0.00 in BKN
17:10 81.6 °F 63.3 °F 30.07 in NNE 2.3 mph   54% 0.00 in BKN
17:16 81.5 °F 63.8 °F 30.07 in NNE 2.3 mph   55% 0.00 in BKN
17:21 81.9 °F 62.5 °F 30.07 in NNE 2.3 mph   52% 0.00 in BKN
17:26 82.4 °F 59.5 °F 30.07 in NNE 2.3 mph   46% 0.00 in BKN
17:31 82.7 °F 62.7 °F 30.07 in NNE 2.3 mph   51% 0.00 in BKN
17:36 82.5 °F 63.6 °F 30.07 in NNE 2.3 mph   53% 0.00 in BKN
17:41 81.7 °F 64.0 °F 30.07 in NNE 2.3 mph   55% 0.00 in BKN
17:46 81.0 °F 63.3 °F 30.07 in NNE 2.3 mph   55% 0.00 in BKN
17:51 80.5 °F 63.4 °F 30.07 in NNE 2.3 mph   56% 0.00 in BKN
17:56 80.1 °F 63.5 °F 30.07 in NNE 2.3 mph   57% 0.00 in BKN
18:01 79.7 °F 62.6 °F 30.07 in NNE 2.3 mph   56% 0.00 in BKN
18:06 79.2 °F 62.7 °F 30.07 in NNE 2.3 mph   57% 0.00 in BKN
18:11 79.0 °F 62.5 °F 30.06 in NNE 2.3 mph   57% 0.00 in BKN
18:16 78.8 °F 62.3 °F 30.06 in NNE 2.3 mph   57% 0.00 in BKN
18:21 78.6 °F 62.6 °F 30.06 in NNE 2.3 mph   58% 0.00 in OVC
18:26 78.5 °F 63.0 °F 30.06 in NNE 2.3 mph   59% 0.00 in OVC
18:31 78.4 °F 62.9 °F 30.05 in NNE 2.3 mph   59% 0.00 in OVC
18:36 78.3 °F 63.3 °F 30.05 in NNE 2.3 mph   60% 0.00 in OVC
18:41 78.3 °F 63.3 °F 30.05 in NNE 2.3 mph   60% 0.00 in OVC
18:46 78.3 °F 63.7 °F 30.05 in NNE 2.3 mph   61% 0.00 in OVC
18:52 78.1 °F 64.0 °F 30.05 in NNE 2.3 mph   62% 0.00 in OVC
18:57 77.8 °F 63.3 °F 30.05 in NNE 2.3 mph   61% 0.00 in OVC
19:02 77.5 °F 63.5 °F 30.05 in NNE 2.3 mph   62% 0.00 in OVC
19:07 77.4 °F 63.4 °F 30.04 in NNE 2.3 mph   62% 0.00 in OVC
19:12 77.4 °F 63.4 °F 30.04 in NNE 2.3 mph   62% 0.00 in OVC
19:17 77.3 °F 63.3 °F 30.05 in NNE 2.3 mph   62% 0.00 in OVC
19:22 77.2 °F 63.6 °F 30.05 in NNE 2.3 mph   63% 0.00 in BKN
19:27 77.2 °F 63.6 °F 30.05 in NNE 2.3 mph   63% 0.00 in BKN
19:32 77.1 °F 63.5 °F 30.05 in NNE 2.3 mph   63% 0.00 in BKN
19:37 76.9 °F 63.3 °F 30.05 in NNE 2.3 mph   63% 0.00 in BKN
19:42 76.8 °F 63.2 °F 30.06 in NNE 2.3 mph   63% 0.00 in BKN
19:47 76.6 °F 64.0 °F 30.05 in NNE 2.3 mph   65% 0.00 in BKN
19:52 76.5 °F 63.9 °F 30.06 in NNE 2.3 mph   65% 0.00 in BKN
19:57 76.4 °F 64.2 °F 30.05 in NNE 2.3 mph   66% 0.00 in BKN
20:02 76.3 °F 64.5 °F 30.05 in NNE 2.3 mph   67% 0.00 in BKN
20:07 76.2 °F 64.0 °F 30.06 in NNE 2.3 mph   66% 0.00 in BKN
20:09 76.1 °F 64.3 °F 30.06 in NNE 2.3 mph   67% 0.00 in BKN
20:14 76.0 °F 64.2 °F 30.06 in NNE 2.3 mph   67% 0.00 in BKN
20:19 75.9 °F 64.6 °F 30.06 in NNE 2.3 mph   68% 0.00 in BKN
20:24 75.7 °F 64.4 °F 30.06 in NNE 2.3 mph   68% 0.00 in BKN
20:29 75.5 °F 64.6 °F 30.06 in NNE 2.3 mph   69% 0.00 in BKN
20:34 75.3 °F 64.4 °F 30.06 in NNE 2.3 mph   69% 0.00 in OVC
20:36 75.2 °F 64.3 °F 30.06 in NNE 2.3 mph   69% 0.00 in OVC
20:39 75.2 °F 64.3 °F 30.06 in NNE 2.3 mph   69% 0.00 in OVC
20:44 75.2 °F 64.3 °F 30.06 in NNE 2.3 mph   69% 0.00 in OVC
20:50 74.6 °F 64.2 °F 30.06 in Calm     70% 0.00 in OVC
20:55 74.4 °F 64.4 °F 30.06 in Calm     71% 0.00 in OVC
21:00 74.2 °F 64.2 °F 30.07 in Calm     71% 0.00 in OVC
21:05 74.0 °F 64.4 °F 30.06 in Calm     72% 0.00 in OVC
21:10 73.9 °F 64.7 °F 30.07 in Calm     73% 0.00 in OVC
21:15 73.7 °F 64.9 °F 30.07 in Calm     74% 0.00 in OVC
21:20 73.5 °F 65.1 °F 30.07 in Calm     75% 0.00 in BKN
21:25 73.3 °F 64.9 °F 30.08 in Calm     75% 0.00 in BKN
21:30 73.2 °F 64.8 °F 30.08 in Calm     75% 0.00 in BKN
21:35 73.1 °F 65.1 °F 30.08 in Calm     76% 0.00 in BKN
21:40 73.0 °F 65.4 °F 30.08 in Calm     77% 0.00 in BKN
21:45 72.9 °F 65.3 °F 30.08 in Calm     77% 0.00 in BKN
21:55 72.5 °F 65.2 °F 30.08 in Calm     78% 0.00 in BKN
22:00 72.4 °F 65.1 °F 30.09 in Calm     78% 0.00 in BKN
22:05 72.3 °F 64.7 °F 30.09 in Calm     77% 0.00 in BKN
22:10 72.3 °F 65.1 °F 30.09 in Calm     78% 0.00 in BKN
22:15 72.3 °F 65.4 °F 30.09 in Calm     79% 0.00 in BKN
22:20 72.2 °F 65.3 °F 30.10 in Calm     79% 0.00 in BKN
22:25 72.1 °F 65.2 °F 30.10 in Calm     79% 0.00 in BKN
22:30 72.0 °F 65.5 °F 30.10 in Calm     80% 0.00 in BKN
22:35 72.0 °F 65.8 °F 30.10 in Calm     81% 0.00 in BKN
22:40 71.8 °F 65.7 °F 30.10 in Calm     81% 0.00 in BKN
22:45 71.8 °F 65.3 °F 30.10 in Calm     80% 0.00 in BKN
22:50 71.7 °F 65.6 °F 30.11 in Calm     81% 0.00 in BKN
22:55 71.6 °F 65.5 °F 30.11 in Calm     81% 0.00 in BKN
23:00 71.5 °F 65.0 °F 30.11 in Calm     80% 0.00 in BKN
23:05 71.4 °F 65.3 °F 30.11 in Calm     81% 0.00 in BKN
23:10 71.3 °F 65.2 °F 30.11 in Calm     81% 0.00 in BKN
23:20 71.2 °F 65.1 °F 30.11 in Calm     81% 0.00 in OVC
23:25 71.2 °F 65.1 °F 30.11 in Calm     81% 0.00 in OVC
23:30 71.2 °F 65.4 °F 30.11 in Calm     82% 0.00 in OVC
23:35 71.1 °F 65.0 °F 30.11 in Calm     81% 0.00 in OVC
23:40 71.0 °F 65.2 °F 30.11 in Calm     82% 0.00 in OVC
23:50 70.8 °F 65.4 °F 30.11 in Calm     83% 0.00 in OVC
23:55 70.8 °F 65.4 °F 30.11 in Calm     83% 0.00 in OVC
Piedmont Bend
Compliments of Weather Underground - 4 mb